Location: Peterborough
(44.3091°N, 78.3197°W)
Time: 14:53:41
(UTC-04:00)

Envisat - Pass Details

Date: 25 April 2026
Orbit: 761 x 762 km, 98.4° (Epoch: 17 May)

Event Time Altitude Azimuth Distance (km) Brightness Sun altitude
Rises 04:17:52 0° 9° (N) 3,234 7.1 -18.6°
Reaches altitude 10° 04:20:12 10° 6° (N) 2,303 6.1 -18.2°
Maximum altitude 04:25:10 59° 288° (WNW) 881 3.1 -17.6°
Enters shadow 04:27:33 30° 221° (SW) 1,347 3.7 -17.2°
